User: anonymous   Login
Location: Unspecified
(0.0000°N, 0.0000°E)
Time: 15:55:33
(UTC+00:00)
Language:

HIMAWARI 9 - Orbit

View from above orbital plane
View from above orbital plane
View from above satellite
View from above satellite

Ground track
Ground track

The orbit data is extracted from the following two-line orbital elements,

1 41836U 16064A   21336.75616216 -.00000258  00000-0  00000-0 0  9994
2 41836   0.0338 128.9590 0000805 146.8061 209.0534  1.00270479 18575
Epoch (UTC): 02 December 2021 18:08:52
Eccentricity: 0.0000805
inclination: 0.0338°
perigee height: 35783 km
apogee height: 35790 km
right ascension of ascending node: 128.9590°
argument of perigee: 146.8061°
revolutions per day: 1.00270479
mean anomaly at epoch: 209.0534°
orbit number at epoch: 1857

The dashed part of the orbit path shows where the satellite is in the earth's shadow,  

DLR